This is the latest recevied weather packets stored in our database for station/object N9DMT-13. If no packets are shown the sender has not sent any weather packets the latest 1 day(s).
| Time | Temp. | Humidity | Pressure | Rain* | Wind** | Luminosity | Snow |
|---|---|---|---|---|---|---|---|
| 1777982211 | 2.78° C | 82% | 977 hPa | 0 mm | 0 m/s | - | - |
| 1777981910 | 1.67° C | 84% | 977 hPa | 0 mm | 0 m/s | - | - |
| 1777981610 | 1.11° C | 85% | 976.6 hPa | 0 mm | 0 m/s | - | - |
| 1777981309 | 1.11° C | 85% | 976.3 hPa | 0 mm | 0 m/s | - | - |
| 1777981008 | 1.11° C | 85% | 976.2 hPa | 0 mm | 0 m/s | - | - |
| 1777980707 | 1.11° C | 84% | 976.1 hPa | 0 mm | 0 m/s | - | - |
| 1777980407 | 1.11° C | 84% | 975.9 hPa | 0 mm | 0 m/s | - | - |
| 1777980106 | 1.11° C | 83% | 976 hPa | 0 mm | 0 m/s | - | - |
| 1777979806 | 1.11° C | 84% | 975.6 hPa | 0 mm | 0 m/s | - | - |
| 1777979505 | 1.11° C | 84% | 975.5 hPa | 0 mm | 0 m/s | - | - |
| 1777979204 | 1.11° C | 83% | 975.6 hPa | 0 mm | 0 m/s | - | - |
| 1777978903 | 1.11° C | 83% | 975.6 hPa | 0 mm | 0 m/s | - | - |
| 1777978602 | 1.11° C | 83% | 975.7 hPa | 0 mm | 0 m/s | - | - |
| 1777978301 | 1.67° C | 82% | 975.6 hPa | 0 mm | 0 m/s | - | - |
| 1777978001 | 1.67° C | 81% | 975.9 hPa | 0 mm | 0 m/s | - | - |
| 1777977700 | 1.67° C | 81% | 975.7 hPa | 0 mm | 0 m/s | - | - |
| 1777977399 | 1.67° C | 81% | 975.7 hPa | 0 mm | 0 m/s | - | - |
| 1777977098 | 1.67° C | 80% | 976 hPa | 0 mm | 0 m/s | - | - |
| 1777976798 | 2.22° C | 81% | 975.9 hPa | 0 mm | 0 m/s | - | - |
| 1777976497 | 2.22° C | 81% | 975.8 hPa | 0 mm | 0 m/s | - | - |
| 1777976196 | 2.78° C | 80% | 975.8 hPa | 0 mm | 0 m/s | - | - |
| 1777975895 | 2.78° C | 78% | 975.7 hPa | 0 mm | 0 m/s | - | - |
| 1777975594 | 2.78° C | 78% | 975.6 hPa | 0 mm | 0 m/s | - | - |
| 1777975294 | 2.78° C | 78% | 975.6 hPa | 0 mm | 0 m/s | - | - |
| 1777974993 | 3.33° C | 77% | 975.5 hPa | 0 mm | 0 m/s | - | - |
* Rain latest hour (hover to see other rain measurements)
** Current wind speed in m/s (hover to see current wind gust speed)